Weather History for Fallon NAS, NV

Change the Weather History Date:

Wednesday, January 15, 2014

  Actual Average Record
Temperature  
Mean Temperature 34 °F -  
Max Temperature 51 °F 47 °F 70 °F (1974)
Min Temperature 17 °F 22 °F -6 °F (1982)
Degree Days  
Heating Degree Days 31    
Moisture  
Dew Point 18 °F    
Average Humidity 62    
Maximum Humidity 85    
Minimum Humidity 29    
Precipitation  
Precipitation 0.00 in - - ()
Sea Level Pressure  
Sea Level Pressure 30.43 in    
Wind  
Wind Speed 3 mph (SSW)    
Max Wind Speed 7 mph    
Max Gust Speed -    
Visibility 10 miles    
Events      
Averages and records for this station are not official NWS values.
T = Trace of Precipitation, MM = Missing Value Source: NWS Daily Summary

Daily Weather History Graph

Daily Weather History Graph

Search for Another Location

Airport:

Trip Planner

Search our weather history database for the weather conditions in past years. The results will help you decide how hot, cold, wet, or windy it might be!

Date:

Astronomy

Jan. 15, 2014 Rise Set
Actual Time 7:13 AM PST 4:55 PM PST
Civil Twilight 6:43 AM PST 5:25 PM PST
Nautical Twilight 6:10 AM PST 5:58 PM PST
Astronomical Twilight 5:38 AM PST 6:30 PM PST
Moon 4:57 PM PST (1/15) 6:32 AM PST (1/15)
Length of Visible Light 10h 41m
Length of Day
9h 42m
Full, 100% of the Moon is Illuminated
Jan 15
Full
Jan 15
Full
Jan 23
Last Quarter
Jan 30
New
Feb 6
First Quarter

Hourly Weather History & Observations

Time (PST) Temp. Windchill Dew Point Humidity Pressure Visibility Wind Dir Wind Speed Gust Speed Precip Events Conditions
12:56 AM 19.9 °F 12.1 °F 14.0 °F 78% 30.46 in 10.0 mi South 5.8 mph - N/A   Clear
1:56 AM 19.9 °F 14.9 °F 15.1 °F 81% 30.45 in 10.0 mi South 3.5 mph - N/A   Clear
2:56 AM 19.0 °F - 12.9 °F 77% 30.45 in 10.0 mi Calm Calm - N/A   Clear
3:56 AM 19.0 °F - 14.0 °F 81% 30.45 in 10.0 mi Calm Calm - N/A   Clear
4:56 AM 18.0 °F 12.7 °F 12.0 °F 78% 30.45 in 10.0 mi WSW 3.5 mph - N/A   Clear
5:56 AM 17.1 °F - 12.0 °F 81% 30.45 in 10.0 mi Calm Calm - N/A   Clear
6:13 AM 17.1 °F 11.7 °F 12.0 °F 81% 30.61 in 10.0 mi NW 3.5 mph - N/A   Clear
6:56 AM 18.0 °F 12.7 °F 14.0 °F 84% 30.46 in 10.0 mi SW 3.5 mph - N/A   Clear
7:56 AM 19.9 °F 13.4 °F 16.0 °F 85% 30.46 in 10.0 mi South 4.6 mph - N/A   Clear
8:56 AM 28.0 °F - 21.0 °F 75% 30.48 in 10.0 mi Calm Calm - N/A   Clear
9:56 AM 36.0 °F - 21.9 °F 57% 30.48 in 10.0 mi Calm Calm - N/A   Partly Cloudy
10:56 AM 41.0 °F 39.0 °F 21.9 °F 47% 30.48 in 10.0 mi Variable 3.5 mph - N/A   Partly Cloudy
11:56 AM 44.1 °F 42.5 °F 23.0 °F 43% 30.44 in 10.0 mi Variable 3.5 mph - N/A   Partly Cloudy
12:56 PM 46.9 °F - 21.9 °F 37% 30.41 in 10.0 mi Calm Calm - N/A   Partly Cloudy
1:56 PM 50.0 °F - 21.9 °F 33% 30.39 in 10.0 mi Calm Calm - N/A   Partly Cloudy
2:56 PM 50.0 °F - 21.9 °F 33% 30.38 in 10.0 mi WSW 3.5 mph - N/A   Scattered Clouds
3:56 PM 51.1 °F - 19.9 °F 29% 30.38 in 10.0 mi North 3.5 mph - N/A   Scattered Clouds
4:56 PM 46.4 °F 44.3 °F 21.2 °F 37% 30.37 in 10.0 mi NE 4.6 mph - N/A   Scattered Clouds
5:56 PM 39.0 °F 34.8 °F 21.0 °F 49% 30.37 in 10.0 mi ENE 5.8 mph - N/A   Partly Cloudy
6:56 PM 34.0 °F - 19.9 °F 56% 30.37 in 10.0 mi Calm Calm - N/A   Partly Cloudy
7:56 PM 30.9 °F 26.2 °F 19.0 °F 61% 30.37 in 10.0 mi South 4.6 mph - N/A   Clear
8:56 PM 27.0 °F 19.5 °F 17.1 °F 66% 30.37 in 10.0 mi South 6.9 mph - N/A   Clear
9:56 PM 26.1 °F 20.5 °F 16.0 °F 66% 30.38 in 10.0 mi South 4.6 mph - N/A   Clear
10:56 PM 26.1 °F 21.9 °F 16.0 °F 66% 30.38 in 10.0 mi SSE 3.5 mph - N/A   Clear
11:56 PM 19.0 °F - 12.9 °F 77% 30.38 in 10.0 mi Calm Calm - N/A   Clear